Temp_Advection
nan nan nan nan nan nan nan nan nan nan nan nan nan nan nan nan nan nan nan nan nan nan nan nan nan nan nan nan nan nan nan nan nan nan nan nan nan nan nan nan nan nan nan nan
nan -0 0 -0 -0 -0 -0 0 0 -0 -0 0 -0 -0 -0 0 -0 -1 -1 -1 -0 -0 0 0 0 0 0 0 0 0 0 0 0 0 0 0 -0 0 1 1 1 0 0 nan
nan 0 0 0 -0 -0 -0 -0 0 0 -1 0 -0 -1 0 0 0 0 0 -0 -0 0 0 0 0 1 0 0 1 1 0 1 1 1 0 0 0 0 0 0 1 0 0 nan
nan 0 -0 0 -0 -0 0 0 -0 0 -0 -0 0 -0 -0 -0 0 -0 0 0 0 -0 -0 0 0 0 0 1 1 1 1 0 1 1 1 0 0 0 0 0 1 -0 -0 nan
nan -0 -0 -0 0 -0 0 -0 -0 0 -0 0 -0 0 -1 -0 0 0 0 -0 -0 0 0 0 -0 -0 -0 0 0 1 1 0 0 1 1 0 0 1 0 -0 0 1 -0 nan
nan -0 -0 -0 -0 0 -0 -0 -0 -0 -0 0 0 0 -1 -0 0 -0 0 0 0 0 0 0 -0 -0 -0 -0 0 1 1 1 0 0 1 1 0 0 1 0 -1 1 1 nan
nan -0 0 -0 -0 0 -0 -0 -0 0 0 0 -0 0 -1 -0 0 0 -0 0 0 0 0 0 0 -0 -1 -0 0 0 1 0 0 0 0 1 1 1 1 1 -0 -0 1 nan
nan 0 -0 -0 -0 0 0 0 0 -0 0 0 0 -0 -0 0 1 0 -0 -0 -0 -0 -0 0 0 -0 -0 -1 -0 0 0 0 0 0 0 0 1 1 0 0 0 -1 0 nan
nan 0 -0 -0 -0 0 -0 -0 -0 -0 0 0 -0 -0 -0 0 0 1 -1 -1 -1 -1 -1 -1 -1 -0 -0 -0 -0 -0 0 0 0 0 0 0 1 1 1 -0 -0 -0 -1 nan
nan -1 -0 -0 -0 -0 0 0 -0 -0 -0 0 0 -0 -0 0 0 0 -0 -1 -0 -1 -1 -1 -0 0 1 0 0 0 0 0 0 0 -0 0 1 1 1 0 -0 -0 -1 nan
nan 1 -0 -0 0 1 -0 -0 -0 0 0 0 -0 -0 0 1 1 0 -1 0 -0 -0 -1 -1 -0 -0 -0 -0 -0 0 0 0 1 1 0 -0 0 1 1 1 0 0 -0 nan
nan 0 -1 0 0 0 0 0 0 1 1 0 0 -1 0 0 1 0 -0 -0 -1 -1 -1 -0 -1 -1 -2 -1 -1 -0 -0 -0 0 0 0 0 -0 0 1 1 1 0 0 nan
nan -0 -0 0 0 0 -0 0 0 0 0 -0 -0 0 0 -0 -0 -1 -0 -2 -1 -0 -1 -0 -1 -1 -1 -1 -1 -0 -1 -1 -0 -0 0 -0 0 0 0 1 1 0 0 nan
nan 0 -0 -1 1 -0 0 -0 -0 -0 -0 -0 -2 -2 0 2 0 -2 -1 -0 -1 -1 -0 -0 -0 -0 -0 -1 -0 -0 -0 -0 -0 -0 -0 -0 -0 0 0 0 1 1 0 nan
nan -0 0 -1 1 0 -1 3 -0 -0 -2 -0 0 1 0 0 -0 -2 -1 -0 0 0 0 0 -0 -0 -0 -0 -0 -0 -0 -0 -0 -0 -0 0 -0 -0 -0 0 0 1 1 nan
nan -0 0 -0 0 1 -0 0 -0 -0 2 0 -1 -1 -1 -1 0 0 -0 0 -0 -0 -0 0 -0 -0 -0 -0 0 -0 -0 -0 -0 -1 0 0 -0 -0 -0 0 0 0 0 nan
nan -0 -0 -0 -0 0 0 1 0 0 0 1 0 1 0 -1 -2 -1 0 0 0 -0 -0 -0 -0 -1 -0 0 0 -0 -0 -0 -0 -1 -0 0 -0 -0 -0 0 0 1 1 nan
nan 0 0 0 -0 -0 1 0 -0 -1 -0 -0 -0 -1 -1 -1 0 -1 -0 0 -0 -0 -0 -0 -0 -0 -0 -0 0 -0 -0 -0 -0 -0 -0 0 0 -0 -0 -0 0 1 1 nan
nan -0 0 0 -0 -1 0 -0 -0 -0 0 0 -1 -1 -3 -0 -1 -0 -0 0 -0 -0 -0 -0 -0 -0 -0 0 0 -1 -0 -0 -0 -0 -0 0 0 0 -0 -0 -0 1 1 nan
nan -0 -0 -0 -0 -1 0 -0 -0 -0 -0 -1 -1 -0 -0 -0 -0 -1 -1 1 1 1 1 0 0 -0 -0 0 0 -0 -1 -0 -0 -0 -0 -0 0 0 0 -1 -0 0 1 nan
nan 0 -0 -0 -0 -0 -0 0 -0 0 -0 -0 0 1 1 0 -1 -0 -1 -0 1 1 2 1 1 0 0 0 0 -0 -0 -1 -0 -0 -0 -0 0 0 0 -0 0 1 1 nan
nan -1 -0 -0 -0 -1 -1 -0 -0 -0 0 -0 -0 -0 -0 1 -0 -0 -1 -1 -1 -0 0 1 1 0 0 1 0 -0 0 -0 -0 -0 -0 -0 -0 1 1 -0 -1 0 0 nan
nan -0 -0 -1 -1 -0 -1 -1 1 -0 -0 -0 -0 0 0 -0 -0 -0 -0 -0 -0 -0 -0 0 0 0 0 1 1 -0 -0 0 -1 -0 -0 -0 -1 -1 1 1 -0 -1 -0 nan
nan 0 -0 -0 -0 -1 -1 1 0 -0 -0 0 0 0 1 0 0 -0 -0 -0 0 1 1 1 0 -0 0 1 1 0 0 0 -0 -1 -0 -0 -0 -0 -1 0 0 -0 -1 nan
nan 0 0 -0 -1 -0 0 -0 -1 -0 -0 -0 -0 0 1 1 0 0 0 -0 0 1 1 2 1 -0 -0 1 1 0 0 0 0 -0 -0 -0 -0 -0 -0 -0 0 0 -0 nan
nan nan nan nan nan nan nan nan nan nan nan nan nan nan nan nan nan nan nan nan nan nan nan nan nan nan nan nan nan nan nan nan nan nan nan nan nan nan nan nan nan nan nan nan
Wind_Speed
7 9 4 3 3 1 1 2 4 6 3 7 4 15 21 20 21 21 25 23 17 16 14 12 11 15 18 19 21 20 20 19 21 23 25 25 27 31 33 35 36 34 30 26
7 4 2 4 3 2 2 3 6 6 2 5 8 19 6 6 3 15 21 25 20 14 16 13 14 18 20 22 23 26 25 23 23 26 27 30 32 35 36 38 36 32 29 24
6 1 2 2 4 6 3 1 3 5 11 2 8 7 6 4 5 3 4 11 15 15 16 11 15 20 22 26 26 28 28 28 26 26 28 30 33 36 38 39 37 36 27 23
6 1 2 2 3 2 3 1 2 4 5 3 6 4 6 5 3 1 4 8 10 11 10 9 14 19 24 27 27 28 30 29 29 28 29 31 34 36 38 39 41 36 28 24
2 3 4 3 2 1 4 2 3 2 2 3 4 4 7 4 4 0 6 9 9 7 6 8 16 21 26 27 29 29 29 29 29 30 29 30 33 36 37 40 35 34 30 26
3 2 3 2 3 2 5 3 2 2 3 3 3 4 5 1 2 2 4 4 2 5 6 11 18 25 28 29 30 30 30 33 30 30 28 30 32 37 37 34 33 34 33 29
3 1 1 2 3 0 7 5 4 5 4 4 1 3 9 5 3 6 6 4 0 4 10 18 28 31 28 29 29 30 30 31 30 29 30 31 32 31 31 31 31 30 33 31
3 6 3 5 3 3 3 4 4 4 3 4 2 5 5 6 11 13 14 9 11 13 17 26 34 35 33 28 27 30 29 32 30 29 29 31 31 30 30 30 28 28 28 31
5 5 2 4 2 3 1 1 1 2 2 3 3 7 7 5 6 12 15 13 18 26 29 34 40 35 31 25 27 30 31 33 34 31 32 32 31 30 30 29 29 28 28 29
2 5 1 2 2 2 2 1 3 3 4 5 5 5 5 3 6 5 8 16 31 39 38 38 37 32 31 31 33 33 33 35 36 34 33 33 32 31 29 30 30 29 28 28
3 3 3 2 4 5 2 2 3 3 3 4 3 6 5 8 7 5 7 27 40 42 41 39 33 30 35 39 37 35 33 37 39 36 34 34 33 33 32 32 31 29 27 25
2 5 3 7 1 3 2 5 4 4 5 2 3 8 1 4 10 7 18 32 40 42 41 35 33 31 44 41 33 31 34 39 39 35 36 35 34 34 34 32 31 29 28 25
5 2 4 7 3 3 2 4 3 4 3 7 4 6 2 2 3 17 31 36 41 42 38 34 32 41 44 38 32 31 37 37 37 35 36 35 34 34 34 33 32 30 28 27
5 1 6 8 8 3 3 5 4 5 3 4 12 17 14 14 9 28 32 36 39 39 35 34 37 42 44 39 32 33 37 36 35 35 35 35 34 34 34 33 33 31 29 28
4 5 5 12 14 6 13 21 7 10 18 8 17 10 15 7 12 25 31 39 36 35 35 37 46 47 45 36 31 38 35 36 35 35 35 35 35 34 33 33 33 30 28 27
3 3 2 5 14 7 7 16 12 18 16 13 23 26 22 25 17 22 32 31 34 35 38 47 46 44 43 36 38 36 35 36 33 33 35 35 35 35 34 33 33 32 31 29
6 3 1 5 3 7 10 8 8 5 3 6 5 11 1 6 15 22 34 31 31 32 44 45 46 43 39 37 37 32 37 35 33 33 34 35 35 35 34 34 35 35 34 33
6 4 2 5 5 1 7 2 5 9 7 14 9 7 17 22 28 22 27 24 28 40 42 42 42 38 38 34 30 33 35 35 34 35 36 36 36 37 36 36 36 36 35 34
5 4 3 3 3 8 8 2 4 6 8 6 8 10 23 23 24 13 15 24 37 37 38 39 34 35 32 29 31 32 35 33 34 35 37 37 37 38 38 38 37 37 36 36
4 4 3 2 3 6 6 3 5 6 6 8 12 10 13 13 7 11 27 36 37 37 35 34 33 33 29 29 30 32 33 33 35 36 37 38 38 39 39 38 38 37 35 35
2 0 8 8 6 9 10 5 7 3 4 2 7 14 14 4 12 31 36 39 37 38 38 33 32 31 29 28 31 32 32 33 34 36 38 39 38 39 38 37 37 36 35 34
9 8 5 4 6 9 13 6 5 1 4 13 14 15 20 23 29 30 33 36 40 41 38 32 30 30 27 28 30 32 33 32 34 37 38 39 38 38 37 37 35 33 35 37
4 8 5 10 8 6 12 15 17 9 14 11 14 19 22 26 31 33 36 39 41 40 36 31 29 30 27 28 27 32 32 33 35 37 39 39 38 38 37 35 37 37 37 36
6 9 4 1 7 18 20 23 10 15 13 17 20 24 26 29 30 35 38 41 43 43 38 31 29 29 31 30 29 28 31 33 35 38 39 39 39 37 36 36 37 38 36 34
6 4 4 8 18 23 6 6 19 20 20 22 23 26 29 32 36 35 39 42 44 45 40 32 29 31 32 32 32 29 29 32 35 37 39 39 39 38 40 40 39 37 38 36
10 8 9 15 14 4 4 10 10 15 19 22 27 32 32 35 37 36 40 42 44 44 41 37 32 31 33 32 31 30 29 30 32 37 38 39 36 39 39 41 44 38 32 33
Wind_Direction
31 61 46 343 13 26 280 267 270 260 25 341 263 285 291 286 242 230 239 232 238 237 253 273 303 318 324 334 335 327 320 313 294 292 289 289 295 299 301 308 313 316 317 318
31 71 270 298 282 309 272 300 307 284 350 342 318 302 293 342 216 225 228 230 229 223 232 263 296 305 309 316 325 328 320 312 304 295 295 291 292 296 298 303 311 314 312 306
93 192 272 334 36 16 26 67 323 258 322 231 305 307 353 7 57 109 182 223 209 219 229 261 291 303 307 311 314 317 314 307 305 299 292 290 291 295 298 306 309 311 308 303
89 217 341 318 80 18 306 150 313 307 28 288 15 277 325 357 25 51 154 177 190 207 240 295 306 313 307 306 306 313 314 303 301 300 291 287 289 290 297 304 305 304 305 301
307 14 15 54 306 27 255 349 237 209 129 50 335 65 266 322 357 253 219 205 210 220 260 317 316 315 315 311 306 304 312 311 303 302 298 291 289 292 297 298 301 302 302 299
88 57 53 290 296 229 308 344 102 54 100 23 239 103 282 213 105 59 92 116 174 217 242 304 326 329 318 312 305 305 311 317 308 302 300 291 291 296 298 299 301 302 301 298
343 39 341 346 320 213 38 34 341 357 7 225 181 9 244 265 255 151 135 104 223 292 315 320 328 336 328 311 295 299 306 317 314 304 296 293 295 294 295 297 298 300 298 297
54 328 10 356 113 196 10 126 145 249 256 286 12 239 253 206 126 111 69 37 6 345 330 324 329 331 330 321 307 306 312 322 321 307 299 302 304 301 297 296 296 294 294 296
21 286 103 45 57 114 299 54 168 53 64 41 240 282 320 112 100 109 63 25 0 348 342 340 340 338 339 326 317 315 310 321 321 313 307 310 306 302 299 298 297 294 293 293
188 316 114 138 48 33 115 188 36 12 334 302 282 285 238 178 149 108 4 349 353 350 344 340 341 342 341 334 323 314 309 319 318 313 308 309 307 305 302 299 296 294 293 290
127 111 285 122 190 184 16 6 25 120 140 204 295 257 230 178 187 184 321 353 347 342 339 338 336 340 339 330 323 314 311 317 317 314 309 308 309 308 305 302 300 298 295 290
224 150 260 254 180 187 177 202 148 130 261 208 153 267 156 220 166 10 342 346 338 335 333 335 337 334 334 333 325 311 309 312 315 311 310 309 309 309 307 306 304 301 295 291
186 240 322 308 12 15 203 227 146 108 69 206 168 254 307 151 268 344 334 329 329 329 333 336 334 332 332 332 323 310 313 314 314 310 308 309 312 311 309 308 306 303 296 289
170 225 201 252 252 122 283 208 211 147 153 209 228 273 274 296 347 323 311 316 320 327 332 330 331 331 332 331 320 313 314 315 313 311 310 311 312 312 310 309 306 303 296 288
153 230 209 272 278 261 265 264 185 192 229 216 267 233 274 284 299 286 304 314 320 324 329 330 332 330 332 328 317 316 314 316 315 314 313 313 313 312 310 309 306 304 299 294
184 264 9 262 272 260 253 264 190 216 238 256 263 278 276 280 275 289 310 314 320 328 329 329 328 327 331 326 318 315 316 317 317 315 313 313 313 313 313 311 308 305 302 296
168 214 342 258 335 330 291 243 186 191 215 160 192 243 230 273 290 303 306 319 321 327 325 326 327 327 326 321 314 313 315 317 317 315 315 315 316 314 313 312 309 306 301 297
160 161 189 276 335 261 241 199 181 184 226 209 265 288 289 282 297 305 322 318 324 323 324 323 324 322 321 316 313 313 315 318 317 317 317 317 317 316 315 312 309 305 300 292
170 147 259 247 225 295 278 225 151 169 263 223 195 251 272 307 319 308 320 322 321 323 321 319 321 320 319 317 316 316 316 318 317 319 317 317 317 316 314 310 309 306 300 294
81 86 153 344 240 265 234 189 175 119 288 184 187 251 281 315 313 309 322 323 325 325 325 323 322 318 320 319 316 315 318 318 319 317 316 316 318 316 313 312 309 304 299 293
115 117 216 217 259 283 263 182 139 91 271 216 283 309 302 241 271 303 321 326 330 331 330 328 321 318 320 318 317 317 317 318 316 315 315 317 318 317 315 312 309 306 302 296
172 168 206 186 216 273 173 124 188 225 311 329 321 320 319 316 319 323 324 328 331 333 332 328 319 317 319 320 319 316 316 319 317 315 316 319 319 318 316 313 309 309 303 296
204 208 205 194 210 244 202 241 300 343 337 340 325 330 331 330 326 326 328 331 330 329 328 325 317 314 318 321 318 315 320 319 317 316 318 321 321 319 318 316 311 301 297 289
244 200 227 271 220 257 279 294 316 347 351 341 340 334 336 329 326 329 331 330 329 330 327 323 316 313 315 322 318 318 320 320 317 317 321 322 321 319 316 316 308 302 297 285
215 157 270 260 284 295 293 323 343 336 338 337 336 336 333 332 329 328 325 329 331 329 327 322 313 312 317 320 318 321 321 320 319 320 322 324 323 321 320 314 307 297 291 287
213 229 253 269 295 275 306 345 353 350 346 343 336 332 332 326 322 324 323 325 327 327 326 321 313 309 313 317 317 321 321 321 320 321 325 324 319 319 312 308 313 310 292 286
Height
1536 1550 1564 1562 1560 1559 1558 1559 1560 1551 1547 1543 1535 1531 1513 1508 1511 1514 1517 1521 1523 1526 1527 1527 1526 1525 1523 1521 1519 1517 1515 1514 1510 1507 1505 1504 1501 1497 1494 1491 1488 1485 1483 1480
1545 1561 1562 1561 1560 1560 1559 1558 1561 1549 1546 1551 1538 1523 1510 1504 1504 1508 1511 1515 1519 1522 1523 1524 1524 1523 1522 1519 1516 1515 1512 1509 1507 1504 1501 1498 1496 1493 1489 1486 1483 1480 1477 1476
1554 1563 1561 1560 1561 1563 1561 1561 1564 1568 1554 1546 1545 1521 1511 1506 1506 1508 1511 1513 1517 1519 1521 1521 1520 1519 1517 1515 1512 1510 1506 1504 1501 1498 1496 1493 1490 1488 1485 1482 1478 1475 1472 1470
1560 1562 1561 1559 1562 1564 1567 1564 1565 1566 1573 1568 1551 1545 1518 1509 1509 1510 1511 1514 1516 1518 1520 1522 1520 1518 1514 1512 1509 1506 1503 1499 1496 1494 1490 1488 1485 1482 1479 1477 1472 1469 1467 1465
1560 1563 1563 1560 1563 1564 1561 1563 1564 1563 1579 1582 1558 1572 1528 1513 1510 1511 1512 1513 1515 1517 1519 1519 1518 1516 1513 1509 1505 1502 1499 1496 1493 1489 1485 1483 1480 1478 1474 1471 1466 1463 1461 1459
1566 1566 1567 1567 1565 1564 1562 1561 1562 1564 1576 1572 1568 1566 1536 1517 1512 1512 1512 1513 1515 1515 1517 1517 1515 1513 1508 1504 1498 1496 1494 1490 1486 1483 1480 1476 1473 1470 1466 1463 1460 1455 1454 1452
1563 1567 1568 1567 1565 1563 1565 1567 1573 1564 1568 1557 1564 1571 1530 1512 1512 1513 1516 1516 1515 1515 1515 1514 1511 1508 1504 1499 1495 1491 1487 1483 1480 1477 1473 1470 1465 1461 1458 1455 1452 1450 1446 1445
1582 1566 1569 1570 1572 1575 1572 1580 1581 1574 1565 1556 1558 1564 1522 1509 1510 1513 1516 1518 1517 1516 1514 1512 1509 1503 1498 1494 1490 1485 1481 1477 1473 1470 1466 1463 1458 1453 1450 1446 1444 1442 1440 1437
1588 1565 1573 1572 1572 1576 1570 1576 1578 1590 1600 1589 1555 1534 1515 1509 1511 1512 1515 1516 1514 1512 1510 1506 1501 1497 1492 1487 1484 1479 1474 1469 1466 1462 1458 1454 1450 1447 1444 1441 1437 1434 1433 1431
1583 1588 1569 1575 1575 1576 1577 1579 1578 1591 1573 1569 1548 1554 1521 1512 1513 1513 1512 1512 1510 1506 1503 1500 1495 1490 1486 1481 1477 1472 1467 1462 1458 1453 1451 1446 1442 1439 1436 1434 1431 1428 1426 1424
1586 1591 1569 1574 1575 1576 1581 1586 1586 1585 1586 1588 1584 1543 1515 1512 1511 1514 1510 1507 1504 1501 1497 1494 1489 1484 1481 1477 1471 1466 1461 1457 1452 1447 1443 1439 1434 1431 1428 1425 1423 1420 1418 1416
1584 1591 1593 1562 1575 1577 1577 1575 1581 1577 1577 1592 1595 1539 1511 1509 1509 1507 1507 1504 1502 1499 1493 1489 1484 1480 1475 1469 1465 1460 1456 1451 1445 1440 1435 1431 1427 1423 1419 1416 1414 1413 1410 1408
1581 1586 1583 1558 1575 1576 1578 1578 1580 1583 1587 1582 1579 1530 1507 1507 1508 1506 1504 1501 1496 1491 1485 1482 1479 1474 1467 1462 1457 1453 1449 1443 1437 1432 1427 1423 1419 1415 1411 1407 1405 1404 1402 1400
1579 1587 1574 1552 1550 1567 1571 1573 1578 1571 1587 1572 1541 1506 1505 1503 1507 1506 1502 1496 1490 1484 1480 1476 1472 1466 1460 1454 1449 1445 1440 1436 1430 1424 1420 1415 1412 1408 1403 1399 1397 1395 1393 1392
1580 1587 1576 1564 1558 1562 1554 1547 1569 1564 1543 1548 1507 1524 1504 1511 1508 1502 1495 1489 1483 1478 1474 1470 1464 1458 1451 1446 1442 1439 1434 1428 1423 1416 1412 1407 1404 1400 1395 1391 1388 1386 1384 1383
1578 1578 1574 1567 1552 1557 1557 1537 1547 1546 1538 1540 1523 1515 1502 1502 1499 1494 1489 1483 1477 1472 1468 1463 1458 1452 1445 1440 1436 1430 1426 1420 1416 1409 1404 1400 1396 1391 1387 1383 1380 1377 1375 1374
1575 1574 1571 1552 1551 1553 1540 1521 1533 1535 1537 1531 1533 1501 1500 1497 1492 1490 1478 1478 1473 1468 1464 1457 1451 1445 1439 1434 1429 1424 1419 1414 1409 1402 1397 1392 1387 1382 1378 1374 1371 1368 1366 1365
1566 1571 1571 1565 1559 1555 1509 1510 1510 1514 1513 1510 1502 1497 1494 1489 1485 1483 1478 1472 1470 1466 1459 1452 1445 1439 1435 1429 1423 1418 1413 1408 1401 1395 1389 1384 1379 1373 1369 1365 1361 1358 1357 1355
1558 1565 1573 1572 1562 1525 1505 1506 1507 1508 1501 1490 1498 1494 1490 1484 1477 1476 1475 1471 1466 1460 1453 1447 1440 1433 1427 1422 1416 1410 1405 1401 1395 1389 1382 1376 1371 1365 1361 1355 1351 1348 1345 1343
1558 1560 1567 1570 1563 1531 1502 1495 1496 1500 1502 1486 1488 1489 1486 1483 1481 1463 1466 1462 1457 1452 1446 1438 1431 1426 1420 1415 1409 1403 1398 1393 1387 1382 1375 1369 1363 1357 1351 1346 1341 1337 1334 1330
1568 1570 1564 1558 1547 1524 1495 1494 1497 1506 1493 1484 1485 1484 1482 1481 1476 1463 1456 1451 1448 1442 1435 1429 1423 1418 1414 1409 1403 1396 1391 1386 1380 1375 1368 1362 1355 1348 1342 1336 1331 1326 1322 1319
1546 1550 1559 1550 1546 1522 1490 1496 1496 1485 1483 1481 1480 1479 1474 1470 1464 1458 1453 1446 1439 1431 1425 1422 1414 1410 1407 1403 1396 1389 1384 1379 1373 1366 1359 1353 1347 1340 1334 1328 1322 1317 1313 1309
1520 1514 1513 1513 1501 1483 1484 1480 1480 1480 1479 1477 1475 1471 1466 1461 1456 1452 1443 1437 1432 1426 1418 1413 1407 1401 1398 1394 1389 1382 1377 1371 1364 1357 1349 1344 1337 1331 1325 1319 1313 1308 1304 1299
1507 1499 1500 1495 1480 1478 1480 1481 1479 1476 1474 1472 1469 1465 1460 1456 1452 1443 1438 1432 1425 1418 1410 1405 1399 1393 1388 1385 1380 1374 1369 1363 1355 1348 1340 1335 1328 1321 1316 1311 1304 1298 1293 1289
1498 1496 1491 1484 1476 1475 1474 1474 1473 1472 1470 1467 1464 1461 1457 1451 1445 1440 1433 1425 1417 1410 1403 1398 1393 1386 1380 1375 1372 1367 1361 1355 1348 1340 1333 1326 1320 1312 1305 1300 1294 1289 1283 1279
1489 1489 1488 1474 1475 1475 1473 1472 1471 1469 1467 1465 1460 1455 1451 1446 1440 1433 1425 1419 1411 1402 1395 1388 1384 1379 1374 1368 1363 1359 1354 1348 1341 1333 1325 1319 1312 1304 1298 1290 1280 1276 1272 1266